Location: Newark
(25.6108°S, 54.5803°W)
Time: 07:34:21
(UTC+00:00)

Tiros 1 - Pass Details

Date: 29 October 2020
Orbit: 630 x 664 km, 48.4° (Epoch: 29 November)

Event Time Altitude Azimuth Distance (km) Brightness Sun altitude
Rises 16:30:19 0° 328° (NNW) 2,947 10.8 70.1°
Reaches altitude 10° 16:32:41 10° 333° (NNW) 2,048 10.1 69.6°
Maximum altitude 16:37:15 50° 48° (NE) 839 8.5 68.7°
Drops below altitude 10° 16:41:55 10° 123° (ESE) 2,086 9.7 67.8°
Sets 16:44:20 0° 128° (SE) 3,007 10.4 67.3°
